Wind_Speed
3 4 3 4 4 4 5 6 6 6 6 7 7 7 7 7 8 8 8 9 9 10 10 10 11 12 12 13 13 13 13 14 14 14 15 15 15 15 16 15 15 15 16
4 4 3 3 4 4 5 5 5 5 5 5 6 6 7 6 7 7 7 8 9 10 10 10 10 11 12 12 12 12 12 13 13 13 13 14 14 15 14 15 14 14 15
3 3 3 3 3 3 4 4 4 4 4 4 4 5 5 6 6 7 8 8 8 8 9 9 10 10 10 11 11 11 12 12 12 12 12 12 13 13 13 13 13 14 15
4 3 3 3 4 4 4 4 4 4 4 4 3 4 4 5 6 7 7 8 8 8 8 8 9 10 10 10 10 11 11 11 11 11 11 12 12 12 13 13 13 14 14
4 4 4 4 4 4 4 4 4 4 4 4 4 4 4 5 5 6 7 8 8 8 8 8 8 9 10 10 10 10 10 10 10 11 11 11 11 12 13 13 13 14 14
4 4 5 5 4 4 4 4 4 4 4 4 4 4 4 5 5 6 6 7 7 8 8 8 8 9 9 9 9 9 10 10 10 11 11 11 11 11 13 13 14 14 14
4 5 5 5 5 4 4 4 5 4 4 4 4 4 4 4 4 5 6 7 7 7 8 8 8 9 9 9 9 9 10 10 10 10 10 11 11 11 12 12 13 14 14
4 4 5 5 5 4 4 4 4 5 4 4 4 4 4 4 4 5 6 6 7 7 7 8 8 9 9 8 8 9 10 11 11 11 11 11 12 12 12 13 13 13 13
4 4 4 4 4 4 4 4 4 5 5 5 5 5 5 5 5 5 6 6 7 7 7 8 9 9 10 10 10 10 10 11 11 11 11 11 12 11 11 12 12 12 12
4 4 4 4 4 5 5 5 5 5 6 6 6 6 6 6 6 7 7 6 7 7 8 7 8 9 9 9 10 10 10 10 10 10 9 9 9 10 10 11 11 11 11
4 4 4 4 5 5 5 5 5 6 6 6 6 6 7 7 7 7 7 6 6 6 7 7 8 8 8 8 9 9 9 9 9 9 9 8 9 9 10 10 10 10 10
5 4 4 5 6 6 5 5 5 6 6 6 7 7 6 6 6 6 6 6 6 6 7 7 7 7 8 8 8 9 9 9 8 8 9 9 9 9 9 9 9 9 10
6 6 6 6 6 6 6 6 6 6 6 7 7 7 6 7 7 7 7 7 7 7 7 6 7 7 7 7 8 8 9 9 9 9 9 9 10 10 10 10 10 10 11
7 6 6 7 7 7 6 6 7 7 7 7 7 7 7 7 7 8 8 8 8 7 7 6 6 7 7 7 8 8 8 8 8 8 9 9 10 11 11 11 11 11 12
7 7 7 7 7 7 7 7 7 8 8 7 8 8 8 8 8 8 8 8 8 8 7 7 7 7 7 8 8 8 8 8 8 9 9 9 10 10 11 11 12 12 12
9 9 8 8 9 9 9 9 9 9 9 8 8 9 9 9 9 9 9 9 9 9 9 9 8 9 8 8 8 8 8 8 9 9 10 11 11 12 12 12 12 13 13
10 10 10 10 11 11 11 10 10 10 9 9 9 9 9 9 10 10 9 9 9 9 9 9 9 8 8 8 8 8 9 10 11 12 12 12 13 13 14 14 15 15 15
12 12 12 12 12 12 11 11 11 11 10 10 10 10 10 10 10 10 9 9 9 9 9 8 8 9 9 9 9 10 10 11 12 13 13 14 14 15 15 15 16 17 17
12 13 13 13 13 12 12 12 12 12 12 11 11 11 10 10 10 10 10 10 10 10 9 9 9 9 10 10 10 11 11 12 12 14 14 15 15 16 16 16 17 18 17
13 13 13 13 13 13 13 13 12 12 12 12 12 12 12 11 11 11 11 11 11 10 10 10 10 10 11 11 12 12 13 13 13 14 15 16 16 17 17 18 18 18 19
13 13 13 13 14 14 13 13 14 14 13 13 12 12 12 12 12 12 12 12 12 12 12 12 12 13 13 13 13 14 14 15 15 15 16 17 18 19 19 19 20 20 20
14 14 13 13 13 14 14 14 14 14 14 14 14 14 14 13 13 13 14 14 14 13 13 14 14 14 14 15 15 15 16 17 17 18 18 18 19 19 20 20 21 21 22
15 14 14 14 14 14 14 14 14 14 15 15 15 15 15 15 15 15 15 15 15 15 15 15 15 16 16 17 17 17 17 18 18 19 19 19 19 19 20 20 21 22 22
15 15 15 15 15 15 15 15 15 15 15 16 16 16 16 16 16 17 17 17 17 17 17 17 17 17 17 18 18 18 18 19 19 20 20 20 20 21 21 22 22 23 24
16 16 16 16 16 16 16 16 16 16 16 17 17 17 17 17 18 18 18 18 19 19 19 19 19 19 19 19 19 19 19 20 20 21 21 21 21 22 23 24 24 25 25
18 18 18 18 17 17 16 17 18 18 18 18 18 18 18 18 19 19 20 20 20 20 21 21 21 21 20 21 21 22 22 22 22 22 22 23 23 24 25 25 26 26 27
Wind_Direction
305 311 288 271 266 266 263 261 267 260 254 257 253 249 254 257 250 253 253 252 250 249 252 255 258 259 259 256 256 257 262 263 265 268 269 269 270 271 273 275 275 267 261
305 303 301 282 276 275 270 269 264 257 256 262 261 254 257 258 253 253 255 253 253 253 253 256 259 258 259 257 255 258 260 263 266 268 270 271 270 273 275 273 272 267 264
315 303 302 284 277 278 280 278 272 261 259 260 264 267 268 268 263 256 255 254 253 255 257 259 258 258 259 257 255 257 260 264 267 270 272 274 273 272 272 271 270 268 266
305 297 292 290 282 282 278 271 268 264 255 257 267 266 271 271 268 262 257 252 251 256 261 264 263 258 257 258 258 258 260 265 268 270 274 277 275 272 271 271 271 271 270
298 294 290 294 292 287 286 273 266 262 258 259 260 267 269 267 270 264 261 254 251 256 262 266 267 261 261 262 260 260 264 267 270 273 275 278 277 274 272 272 273 274 275
291 291 291 293 292 285 287 280 269 264 265 265 261 264 267 267 264 263 267 263 260 263 264 264 261 259 261 260 262 262 267 270 273 275 274 275 276 276 274 273 272 273 274
295 300 296 295 291 287 290 286 283 270 267 265 268 269 266 265 267 268 268 268 267 265 264 263 261 260 261 263 263 265 269 273 275 278 280 278 277 276 277 275 273 272 272
306 306 295 295 295 291 289 284 279 271 269 266 267 271 272 271 274 273 268 269 266 263 265 266 265 262 262 264 270 269 271 274 275 279 281 281 281 281 280 281 279 275 272
319 311 300 298 296 293 290 286 280 269 263 265 270 278 281 278 275 280 278 274 268 267 267 267 267 265 265 266 270 275 279 281 278 279 281 284 289 286 286 289 287 278 271
314 308 300 299 298 296 291 284 280 272 265 265 272 276 279 277 277 276 281 278 278 277 277 276 270 268 265 270 274 276 278 274 272 277 280 286 291 292 294 295 289 279 270
317 303 294 295 295 295 294 285 279 276 271 273 276 278 279 280 278 272 272 276 279 281 280 280 276 272 267 270 273 272 274 270 269 274 280 285 292 295 297 299 295 284 273
315 301 294 292 292 292 291 285 279 279 275 278 281 280 279 278 280 281 278 277 280 279 278 277 276 274 274 277 278 274 272 273 272 273 277 282 288 291 293 297 295 289 283
313 302 296 295 294 294 294 293 289 286 283 282 283 282 281 279 280 285 288 283 280 283 281 279 275 277 280 283 283 282 278 275 271 270 273 277 281 285 289 293 291 290 288
311 301 294 292 292 292 293 296 291 287 287 285 284 283 283 282 280 285 291 290 283 283 282 278 274 276 281 285 286 282 279 278 273 276 279 280 282 284 290 291 288 287 286
303 298 294 293 292 289 287 287 288 288 287 283 281 282 282 282 282 283 288 290 289 286 281 279 279 279 280 284 285 282 279 280 279 281 283 287 291 292 292 293 293 291 287
300 294 291 291 292 290 287 285 283 282 281 279 278 278 279 281 283 282 282 284 288 288 287 286 282 280 281 284 288 287 283 281 281 282 284 288 291 292 292 289 291 291 288
296 292 289 288 288 288 288 285 282 283 282 279 278 277 278 280 282 282 282 282 284 286 286 287 284 283 282 284 287 288 287 286 286 285 286 289 290 291 291 291 292 292 290
292 291 287 284 286 286 285 282 281 280 280 279 278 276 275 277 280 282 283 283 283 284 285 285 288 288 284 283 286 289 289 289 289 289 289 290 291 292 290 289 292 294 293
289 287 285 284 284 283 282 281 279 278 278 275 274 274 275 275 276 277 280 281 278 280 284 286 288 289 289 287 285 288 291 292 293 293 293 293 294 294 291 290 292 293 294
287 286 286 283 281 280 279 279 280 278 277 276 275 274 273 272 273 273 275 277 276 277 281 285 286 287 288 289 285 286 289 291 292 293 293 293 293 294 292 292 291 291 292
289 288 286 284 283 280 277 275 275 277 276 276 275 275 274 272 271 271 273 274 277 277 278 282 284 285 286 289 287 287 287 288 290 291 292 292 294 294 293 293 293 292 292
288 287 285 284 285 282 278 277 275 273 275 275 273 274 274 274 273 271 271 273 274 276 277 279 282 285 287 288 290 290 290 290 291 292 293 294 294 295 295 295 294 294 293
286 285 285 284 282 282 279 276 275 275 273 273 272 274 273 274 274 273 273 274 275 277 278 279 281 284 285 287 290 291 291 292 293 293 294 294 295 296 297 297 296 296 295
285 286 284 282 281 280 279 274 274 276 275 272 273 274 275 273 271 272 273 273 274 276 278 280 281 283 285 286 288 291 292 293 293 294 294 295 295 296 297 298 298 298 296
285 286 283 281 280 279 277 274 275 276 275 274 275 275 275 274 273 273 273 273 274 276 277 278 280 283 283 285 287 289 291 292 293 293 293 295 295 296 296 296 297 297 296
284 285 282 279 279 278 275 273 274 275 275 276 276 275 276 276 275 275 275 273 274 276 276 277 278 279 281 284 286 288 291 292 292 292 292 293 294 295 296 296 297 297 297
Height
5855 5855 5854 5854 5853 5853 5853 5852 5852 5852 5852 5851 5851 5851 5851 5852 5852 5852 5852 5852 5852 5852 5852 5852 5853 5853 5853 5853 5853 5853 5853 5853 5853 5853 5852 5852 5851 5851 5850 5848 5846 5844 5846
5855 5854 5853 5853 5852 5852 5851 5851 5851 5850 5850 5850 5850 5850 5850 5850 5850 5850 5850 5850 5850 5850 5850 5850 5850 5850 5850 5850 5850 5850 5850 5850 5850 5849 5849 5849 5848 5847 5847 5845 5844 5843 5844
5854 5853 5852 5852 5851 5851 5850 5850 5849 5849 5849 5849 5849 5848 5848 5848 5848 5848 5848 5848 5848 5848 5848 5848 5848 5847 5847 5847 5847 5847 5847 5847 5847 5846 5846 5845 5845 5844 5844 5843 5842 5841 5841
5853 5852 5852 5851 5850 5850 5849 5849 5848 5848 5848 5848 5847 5847 5847 5847 5847 5846 5846 5846 5846 5846 5846 5845 5845 5845 5845 5845 5845 5845 5845 5844 5844 5844 5843 5843 5842 5841 5841 5840 5840 5839 5838
5851 5851 5851 5850 5849 5849 5848 5848 5847 5847 5847 5847 5846 5846 5846 5845 5845 5845 5844 5844 5844 5844 5844 5843 5843 5843 5843 5842 5842 5842 5842 5842 5841 5841 5840 5840 5839 5838 5838 5837 5837 5836 5835
5850 5850 5849 5849 5848 5848 5847 5847 5846 5846 5846 5845 5845 5845 5844 5844 5844 5843 5843 5842 5842 5842 5842 5842 5841 5841 5840 5840 5840 5840 5839 5839 5839 5838 5837 5837 5836 5835 5834 5834 5833 5833 5832
5849 5848 5848 5848 5847 5847 5846 5845 5845 5845 5844 5844 5844 5844 5843 5842 5842 5842 5841 5841 5840 5840 5840 5840 5839 5839 5838 5837 5837 5837 5837 5837 5836 5835 5834 5834 5833 5832 5831 5830 5829 5829 5828
5848 5847 5847 5846 5846 5845 5845 5844 5844 5844 5843 5843 5843 5842 5842 5842 5841 5840 5840 5839 5839 5838 5838 5838 5837 5837 5836 5836 5835 5835 5835 5834 5834 5832 5832 5831 5829 5829 5828 5826 5825 5824 5824
5846 5846 5845 5845 5844 5844 5844 5843 5843 5842 5842 5842 5842 5842 5841 5840 5840 5839 5838 5838 5837 5836 5836 5836 5835 5834 5834 5834 5833 5833 5832 5832 5831 5830 5829 5828 5827 5825 5824 5822 5820 5819 5820
5845 5845 5844 5844 5844 5843 5843 5842 5842 5841 5841 5840 5840 5840 5840 5839 5838 5838 5837 5836 5835 5834 5834 5833 5833 5832 5832 5831 5831 5830 5830 5829 5828 5827 5826 5825 5824 5823 5821 5819 5816 5815 5816
5844 5843 5843 5843 5842 5842 5841 5841 5840 5840 5839 5839 5838 5838 5837 5837 5836 5836 5835 5834 5834 5833 5832 5831 5830 5830 5829 5829 5828 5828 5827 5826 5826 5825 5824 5823 5822 5820 5819 5817 5814 5813 5813
5843 5842 5842 5841 5841 5840 5840 5839 5839 5838 5838 5837 5837 5836 5836 5835 5834 5834 5833 5832 5832 5831 5830 5829 5828 5828 5827 5827 5826 5825 5824 5824 5823 5823 5822 5821 5820 5819 5817 5815 5814 5813 5812
5842 5841 5840 5840 5839 5839 5838 5838 5837 5837 5836 5836 5835 5834 5834 5833 5833 5832 5831 5830 5830 5829 5828 5827 5827 5826 5825 5824 5823 5823 5822 5821 5821 5820 5819 5818 5818 5817 5815 5814 5812 5811 5810
5840 5839 5839 5838 5838 5837 5837 5836 5835 5835 5834 5834 5833 5833 5832 5831 5831 5830 5829 5829 5828 5827 5826 5825 5825 5824 5823 5822 5821 5820 5820 5819 5818 5818 5817 5816 5815 5814 5812 5811 5810 5809 5808
5838 5838 5837 5836 5836 5835 5835 5834 5833 5833 5832 5832 5831 5831 5830 5829 5829 5828 5827 5826 5826 5825 5824 5823 5823 5822 5821 5820 5819 5818 5817 5816 5816 5815 5814 5813 5812 5811 5810 5808 5807 5806 5805
5836 5835 5835 5834 5833 5833 5832 5832 5831 5830 5830 5829 5829 5828 5828 5827 5826 5826 5825 5824 5823 5823 5822 5821 5820 5819 5818 5818 5817 5816 5814 5814 5813 5812 5812 5811 5809 5808 5807 5805 5804 5803 5801
5833 5833 5832 5831 5830 5830 5829 5829 5828 5827 5827 5827 5826 5826 5825 5825 5824 5823 5822 5821 5821 5820 5819 5819 5818 5817 5816 5815 5814 5813 5812 5811 5810 5810 5809 5808 5806 5805 5803 5802 5800 5799 5798
5830 5829 5828 5828 5827 5826 5826 5825 5825 5824 5824 5824 5823 5823 5822 5822 5821 5821 5820 5819 5818 5818 5817 5816 5815 5814 5814 5813 5812 5811 5810 5809 5808 5806 5805 5804 5803 5801 5799 5798 5796 5795 5793
5826 5825 5824 5824 5823 5823 5822 5822 5821 5821 5820 5820 5820 5820 5819 5819 5818 5818 5817 5816 5816 5815 5814 5814 5813 5812 5811 5810 5809 5808 5807 5806 5805 5803 5802 5800 5799 5797 5795 5794 5792 5790 5788
5822 5821 5821 5820 5819 5819 5819 5818 5818 5817 5817 5817 5816 5816 5816 5815 5815 5814 5814 5813 5813 5812 5811 5811 5810 5809 5808 5807 5806 5805 5804 5803 5801 5800 5798 5796 5795 5793 5791 5789 5788 5786 5784
5819 5818 5817 5816 5816 5815 5815 5814 5814 5814 5813 5813 5813 5812 5812 5812 5811 5811 5811 5810 5809 5809 5808 5808 5807 5806 5805 5804 5803 5801 5800 5799 5797 5796 5794 5792 5790 5788 5786 5784 5782 5780 5778
5815 5814 5813 5812 5812 5811 5811 5810 5810 5810 5810 5809 5809 5809 5808 5808 5807 5807 5807 5806 5806 5805 5805 5804 5803 5802 5801 5800 5798 5797 5796 5794 5793 5792 5789 5787 5785 5783 5781 5779 5777 5774 5772
5811 5810 5809 5808 5808 5807 5806 5806 5806 5805 5805 5805 5805 5804 5804 5803 5803 5803 5803 5802 5802 5801 5801 5800 5799 5798 5797 5795 5794 5793 5791 5790 5788 5786 5784 5782 5780 5778 5776 5773 5771 5769 5766
5806 5805 5804 5804 5803 5802 5802 5801 5801 5801 5801 5800 5800 5800 5799 5799 5799 5798 5798 5797 5797 5797 5796 5795 5794 5793 5792 5790 5789 5788 5786 5785 5783 5781 5779 5777 5775 5773 5770 5768 5765 5763 5760
5802 5801 5800 5799 5798 5797 5797 5796 5796 5796 5796 5796 5795 5795 5794 5794 5793 5793 5793 5792 5792 5791 5790 5789 5789 5788 5786 5785 5784 5783 5781 5779 5777 5775 5773 5771 5769 5767 5764 5762 5759 5756 5754
5796 5795 5795 5794 5793 5792 5791 5791 5791 5791 5791 5791 5790 5790 5789 5788 5788 5787 5787 5786 5786 5785 5785 5784 5783 5782 5781 5780 5778 5777 5775 5774 5771 5769 5767 5765 5763 5761 5758 5755 5752 5749 5746